Weather in Thornhill

Canada     43°48′57″N   79°25′10″W
temp.,
°C
wind,
m/s
gust,
m/s
humid.,
%
clouds,
%
prec.,
mm/h
press.,
hPa
HPBL,
m
14 may, fri
fri1423:00+11nw26735 0.0 1025178
02:00+9nw25490 0.0 1025114
05:00+8nw24414 0.0 102690
08:00+11wnw13345 0.0 1027148
11:00+17w12215 0.0 1026719
14:00+21wsw23215 0.0 10242642
17:00+21wsw232491 0.0 10222991
20:00+18nne124382 0.0 1022159
15 may, sat
sat1523:00+14nw235868 0.0 1023106
02:00+11nw24665 0.0 1024124
05:00+10nw2373100 0.0 102467
08:00+12sw11595 0.0 1025141
11:00+18wsw233089 0.0 1025798
14:00+21wsw333284 0.0 10232665
17:00+17wsw5660100 0.8 1023792
20:00+14sse118199 2.3 1024155
16 may, sun
sun1623:00+12wnw228279 0.0 102345
02:00+11wsw1190100 0.1 102325
05:00+10n118999 0.4 102416
08:00+12ene1286100 0.4 1025151
11:00+16se126498 0.0 1025605
14:00+19sse32417 0.1 10231570
17:00+20se32356 0.0 10221869
20:00+17sse24440 0.0 1023153
17 may, mon
mon1723:00+13wnw1156100 0.0 102424
02:00+12n1165100 0.0 102416
05:00+11e1169100 0.0 102421
08:00+13se116417 0.0 1025188
11:00+18sse33460 0.0 1025919
14:00+20se43416 0.0 10241397
17:00+20se33435 0.0 10231321
20:00+16se33590 0.0 1024295
18 may, tue
tue1823:00+13se11675 0.0 102631
02:00+12e01730 0.0 102511
05:00+11e01810 0.0 102610
08:00+14e12714 0.0 1027222
11:00+19ese33510 0.0 1027824
14:00+21se43420 0.0 10261149
17:00+22se33410 0.0 10241141
20:00+18se23596 0.0 1025197